This demonstration page uses our WeatherBlox Daily Observations layout. Learn more.

Left ArrowRight Arrow

34.74481, -87.66753

Hourly Observations for December 26, 2019

Temp ( °F °C ) Dew Point ( °F °C ) Humidity (%) Winds ( mph kmh ) Pressure ( in mb ) Visibility ( mi km ) Precip ( " mm )
12:53 am 00:53 Clear 52 11.1 48 8.9 86 86 ESE 6 9 30.08 1019 10 16 0.00 0.00
1:53 am 01:53 Cloudy 52 11.1 48 8.9 86 86 ESE 3 6 30.10 1019 10 16 0.00 0.00
2:53 am 02:53 Mostly Cloudy 52 11.1 49 9.4 89 89 SE 3 6 30.11 1020 10 16 0.00 0.00
3:53 am 03:53 Cloudy 55 12.8 49 9.4 80 80 SE 6 9 30.11 1020 10 16 0.00 0.00
4:53 am 04:53 Cloudy 56 13.3 48 8.9 75 75 SE 6 9 30.12 1020 10 16 0.00 0.00
5:53 am 05:53 Cloudy 56 13.3 47 8.3 72 72 SE 7 11 30.13 1020 10 16 0.00 0.00
6:53 am 06:53 Cloudy 55 12.8 46 7.8 72 72 SE 3 6 30.14 1021 10 16 0.00 0.00
7:53 am 07:53 Cloudy 56 13.3 46 7.8 70 70 SE 5 7 30.16 1021 10 16 0.00 0.00
8:53 am 08:53 Cloudy 59 15 45 7.2 60 60 SE 5 7 30.18 1022 10 16 0.00 0.00
9:53 am 09:53 Cloudy 61 16.1 44 6.7 54 54 SE 5 7 30.20 1023 10 16 0.00 0.00
10:53 am 10:53 Cloudy 64 17.8 45 7.2 50 50 SSE 9 15 30.17 1022 10 16 0.00 0.00
11:53 am 11:53 Cloudy 65 18.3 47 8.3 52 52 Calm 30.14 1021 10 16 0.00 0.00
12:53 pm 12:53 Cloudy 67 19.4 49 9.4 53 53 SE 5 7 30.12 1020 10 16 0.00 0.00
1:53 pm 13:53 Cloudy 67 19.4 51 10.6 57 57 S 5 7 30.12 1020 10 16 0.00 0.00
2:53 pm 14:53 Cloudy 67 19.4 51 10.6 57 57 S 5 7 30.13 1020 10 16 0.00 0.00
3:18 pm 15:18 Cloudy 66 18.9 51 10.6 59 59 S 5 7 30.13 1020 10 16 0.00 0.00
3:49 pm 15:49 Cloudy 63 17 54 12 73 73 SE 10 17 30.14 1021 10 16 0.00 0.00
3:53 pm 15:53 Cloudy 63 17.2 53 11.7 70 70 SE 10 17 30.14 1021 10 16 0.00 0.00
4:35 pm 16:35 Cloudy 62 16.7 55 12.8 78 78 S 5 7 30.15 1021 10 16 0.00 0.00
4:53 pm 16:53 Cloudy 61 16.1 55 12.8 81 81 S 5 7 30.14 1021 10 16 0.00 0.00
5:53 pm 17:53 Cloudy 61 16.1 56 13.3 84 84 Calm 30.15 1021 10 16 0.00 0.00
6:53 pm 18:53 Cloudy 60 15.6 55 12.8 84 84 S 3 6 30.17 1022 10 16 0.00 0.00
7:53 pm 19:53 Cloudy 59 15 53 11.7 81 81 SSE 3 6 30.18 1022 10 16 0.00 0.00
8:53 pm 20:53 Cloudy 58 14.4 53 11.7 84 84 Calm 30.18 1022 10 16 0.00 0.00
9:53 pm 21:53 Cloudy 59 15 54 12.2 83 83 Calm 30.19 1022 10 16 0.00 0.00
10:53 pm 22:53 Cloudy 59 15 54 12.2 83 83 Calm 30.19 1022 10 16 0.00 0.00
11:53 pm 23:53 Cloudy 58 14.4 54 12.2 87 87 Calm 30.17 1022 10 16 0.00 0.00

Powered by AerisWeather